Погода в Ойусардахе

Россия / Республика Саха (Якутия)     68°16′36″N   154°42′31″E
темп.,
°C
ветер,
м/с
пор.,
м/с
влажн.,
%
обл.,
%
осадки,
мм/ч
давл.,
гПа
погр.,
м
3 марта, ср
ср323:00−37юз339718 0.0 102719
02:00−37ююз339951 0.0 102619
05:00−38ююз239860 0.0 102619
08:00−38ю229973 0.0 102519
11:00−34вюв229283 0.0 1024112
14:00−32всв2390100 0.0 1022266
17:00−32всв3394100 0.0 1020110
20:00−34всв239886 0.0 101819
4 марта, чт
чт423:00−35св349972 0.0 101621
02:00−35ссв449854 0.0 101369
05:00−33с579677 0.0 1009236
08:00−33с7995100 0.1 1006311
11:00−31ссз91295100 0.1 1000391
14:00−29с81294100 0.1 996530
17:00−27ссз81197100 0.8 992610
20:00−24сз101597100 1.2 989581
5 марта, пт
пт523:00−22с111597100 2.2 987601
02:00−23с91396100 0.6 986693
05:00−23ссз81297100 0.9 986661
08:00−22ссз81397100 0.3 986519
11:00−20ссз101395100 0.7 986851
14:00−19с91293100 0.4 987936
17:00−19с81295100 0.8 988929
20:00−20с111693100 0.4 991669
6 марта, сб
сб623:00−20с101594100 0.6 993719
02:00−21с91297100 0.6 996789
05:00−22с91397100 1.3 997824
08:00−24с91296100 0.6 999902
11:00−24с91195100 1.1 9991015
14:00−24с91194100 0.4 10001092
17:00−25с81195100 0.8 1000971
20:00−26с71096100 0.3 1001735
7 марта, вс
вс723:00−26с61096100 0.6 1002627
02:00−26с6995100 0.1 1003463
05:00−28с5797100 0.2 1005120
08:00−29с5798100 0.0 1007121
11:00−27с6993100 0.1 1009464
14:00−27с6893100 0.0 1009410
17:00−28ссз7109598 0.1 1010345
20:00−29ссз7119598 0.1 1011240